Wind_Speed
9 15 12 11 11 12 13 12 19 19 17 14 12 10 16 11 13 11 26 25 23 21 22 21 24 23 21 23 22 22 20 18 16 14 14 13 12 12 13 13 13 14 15 16 16 16 18 18 18
11 10 13 16 18 17 10 14 13 11 10 11 12 12 10 8 7 24 25 25 24 21 20 21 22 22 23 22 21 19 17 15 12 12 11 12 11 13 14 15 15 16 16 17 18 19 20 21 21
11 14 17 16 13 13 10 12 14 11 10 10 11 11 9 10 19 23 23 23 23 21 22 22 23 23 23 21 19 17 14 12 11 11 11 12 14 15 15 16 17 18 18 18 20 22 22 23 23
10 8 15 16 14 13 13 9 7 8 12 9 5 2 7 11 22 22 22 21 22 21 21 21 22 22 21 19 18 14 12 12 11 12 13 15 15 16 16 17 19 19 21 22 23 25 28 29 30
10 13 14 15 13 12 10 7 5 6 7 9 4 2 16 19 26 22 21 19 19 18 18 18 20 20 20 19 16 13 12 12 12 15 15 15 15 17 18 20 21 23 25 26 30 32 33 33 32
11 13 13 10 11 12 10 7 5 5 7 7 8 16 26 30 24 22 21 19 19 18 17 17 18 18 18 17 14 12 12 12 14 15 14 14 17 18 19 21 24 26 31 34 34 33 33 32 31
11 11 9 12 13 11 11 10 6 5 8 12 14 18 22 26 25 19 20 18 18 19 17 17 17 20 18 15 14 11 12 13 14 14 13 15 17 19 21 25 29 33 34 33 32 32 31 29 29
8 12 12 11 13 11 10 10 9 7 11 13 12 17 19 22 21 16 16 18 19 19 19 17 18 22 22 16 14 12 12 12 13 13 13 16 19 22 26 30 32 33 32 32 31 30 27 26 26
6 9 10 11 9 8 9 11 11 10 11 15 17 14 15 16 17 14 11 12 16 19 20 18 18 22 19 17 14 12 12 12 12 13 13 16 19 25 28 29 30 30 30 30 29 27 25 23 22
8 7 8 11 10 8 9 9 11 9 9 13 14 16 16 15 14 12 9 8 12 17 21 20 20 20 20 17 14 13 13 12 12 12 12 14 19 23 25 27 27 27 28 27 26 24 21 20 19
5 5 6 9 14 10 9 10 12 9 6 5 5 15 15 14 13 13 10 10 12 17 21 22 22 22 19 17 14 12 12 10 11 11 10 11 16 20 22 25 25 25 25 25 23 20 19 18 16
7 2 3 8 12 15 13 10 10 11 3 8 12 12 11 13 11 10 10 12 11 15 21 24 25 25 20 17 13 11 11 9 9 10 10 10 12 15 19 21 23 23 24 22 20 18 16 14 14
2 2 7 8 8 8 10 9 8 9 7 15 20 15 14 14 15 14 15 13 10 14 20 23 25 23 19 16 12 10 10 10 8 8 9 8 7 10 16 19 20 21 21 20 17 17 14 12 11
3 6 8 6 3 3 4 6 8 8 10 17 17 17 14 15 15 16 17 12 10 18 20 23 24 22 20 15 12 9 9 8 7 6 7 8 8 10 14 16 18 19 20 19 17 15 12 11 9
8 5 3 5 2 2 1 1 3 4 10 15 18 17 15 16 19 20 17 15 16 20 20 22 21 20 19 15 12 9 8 8 6 5 6 8 9 9 12 14 16 19 21 19 17 15 12 10 8
4 6 4 4 5 3 5 2 2 3 6 14 16 16 15 18 20 20 19 17 17 17 18 17 19 20 16 13 8 8 6 5 5 4 4 4 8 10 11 14 16 18 21 20 18 16 14 12 9
3 1 6 6 8 5 6 3 4 4 8 12 14 14 21 19 20 20 17 16 15 12 13 14 16 14 13 10 8 7 5 7 6 5 4 5 6 10 13 14 17 19 21 22 20 18 16 14 12
1 3 3 5 5 8 3 4 5 6 6 10 12 17 20 18 19 19 16 14 12 11 11 12 14 13 11 11 8 8 7 7 7 9 8 8 7 9 14 15 16 19 23 23 23 21 19 17 15
8 6 4 5 6 5 4 3 2 6 9 10 14 15 17 20 21 19 16 14 12 10 8 8 7 7 7 7 8 9 10 12 10 12 11 11 12 11 12 15 16 17 23 25 25 24 23 21 20
10 10 7 5 3 4 6 4 4 3 4 6 7 13 17 22 22 21 18 14 13 10 9 8 6 5 5 5 6 8 9 10 11 14 15 14 15 14 14 15 17 19 20 24 27 27 26 25 24
11 10 6 6 9 8 6 8 11 9 8 13 11 11 15 18 18 18 18 15 9 8 8 7 6 6 4 5 5 4 5 6 7 9 12 15 16 18 17 17 17 19 20 22 25 29 30 30 28
6 5 7 7 8 5 9 1 4 12 13 13 16 17 16 18 24 23 19 14 9 7 8 8 8 8 7 5 4 3 3 5 7 9 11 15 18 19 20 20 21 21 21 22 25 28 30 31 32
4 6 5 4 8 5 7 5 8 8 13 18 18 13 22 24 22 18 15 12 9 7 5 9 12 12 10 8 4 3 3 6 8 9 12 14 17 19 21 22 23 25 25 25 25 27 29 32 33
7 8 6 6 7 7 7 8 5 9 13 15 21 23 19 24 20 19 16 12 12 11 11 8 9 8 8 7 6 5 7 6 7 10 11 13 16 19 20 22 23 25 26 28 29 28 29 31 33
9 7 4 5 6 7 10 7 7 8 15 18 21 24 26 19 22 20 18 17 14 16 15 15 14 15 11 9 8 10 11 11 11 11 11 11 13 15 17 21 23 25 26 28 29 30 31 31 33
10 10 8 6 6 3 4 5 4 8 9 13 13 17 24 24 18 18 21 17 14 13 19 19 18 23 15 8 13 17 17 16 15 14 15 14 16 16 17 19 23 25 27 28 29 31 33 33 33
6 9 13 9 3 3 3 3 5 6 4 3 8 18 21 30 28 21 21 20 18 10 12 19 16 13 12 12 16 13 17 9 13 17 20 22 21 23 24 23 24 25 27 27 30 32 32 34 34
8 9 4 6 6 6 4 3 5 5 7 5 5 13 19 26 28 27 24 23 22 16 13 15 13 14 10 9 10 10 9 10 12 14 15 18 22 23 25 29 30 29 28 29 30 32 33 34 33
9 10 7 6 4 3 4 4 11 8 10 7 9 14 19 23 27 28 30 29 29 28 19 14 12 11 10 13 14 14 12 13 15 16 18 18 20 23 25 28 28 29 32 31 33 34 35 37 37
11 10 10 8 6 6 3 4 15 13 14 10 11 14 16 18 22 26 28 31 23 24 23 17 12 17 20 20 21 21 22 23 24 25 27 28 28 29 29 28 28 30 33 33 33 35 39 40 40
Wind_Direction
108 114 104 89 88 106 100 106 120 127 125 117 126 119 150 111 113 137 135 129 126 124 122 125 125 121 117 117 112 106 104 102 100 99 96 94 93 98 102 105 106 104 102 102 99 100 101 100 95
120 111 98 95 102 97 92 130 130 125 115 125 127 125 157 147 112 139 135 132 126 124 126 133 127 121 119 114 111 106 103 101 100 94 89 89 95 100 100 100 101 103 103 100 100 101 98 95 92
110 110 105 105 95 93 112 130 143 132 144 131 123 124 131 143 137 142 137 134 131 128 126 127 128 122 120 118 111 103 96 92 91 94 96 102 103 102 102 104 105 105 106 103 100 99 97 95 95
128 103 94 102 84 93 122 134 162 149 154 157 175 216 187 164 149 147 143 142 137 129 127 127 126 125 121 118 109 104 95 90 93 97 103 104 102 103 105 105 107 108 105 104 102 100 99 98 96
116 95 97 99 87 95 111 118 130 163 153 167 177 250 166 156 152 150 149 147 145 134 129 133 128 126 125 120 116 106 98 100 96 103 106 107 107 105 106 107 107 105 105 105 104 103 101 100 99
105 99 86 87 112 102 109 102 94 121 142 164 159 134 133 143 150 150 155 154 152 148 135 135 135 133 129 123 115 103 100 100 105 109 110 114 112 110 110 109 108 108 109 109 107 105 104 103 101
115 108 101 110 122 117 107 101 98 116 126 135 145 149 146 152 150 158 165 163 164 158 148 138 139 141 132 124 115 106 101 103 110 107 108 112 113 114 114 112 112 113 113 111 110 109 107 106 104
104 99 111 124 131 140 126 109 94 109 128 145 154 171 148 158 160 168 174 178 177 167 155 150 141 141 140 138 121 108 106 106 108 108 111 113 120 120 118 118 118 118 117 117 115 114 112 109 105
100 105 104 112 123 122 122 86 106 108 136 156 162 162 161 158 158 160 160 170 180 177 167 155 149 153 148 139 125 112 109 105 111 114 115 122 129 128 123 121 122 122 121 121 119 116 113 108 105
140 110 97 79 83 112 108 100 71 108 142 153 159 161 164 159 157 161 167 172 176 178 174 165 157 153 147 139 128 117 117 112 119 118 122 126 134 129 124 125 126 126 127 126 122 119 114 108 103
155 145 108 82 94 82 90 107 66 96 113 162 162 155 160 158 161 163 171 167 165 174 177 170 158 158 152 143 132 119 118 119 121 127 124 126 136 133 132 131 132 134 134 131 128 122 117 112 104
147 197 161 102 100 81 80 83 66 59 90 161 151 155 151 147 151 151 149 149 149 166 176 168 158 162 154 146 136 124 122 121 117 130 132 131 137 141 139 140 140 141 141 138 132 125 121 115 107
163 137 149 109 111 101 90 89 75 71 110 146 145 155 154 156 154 151 144 138 150 160 169 165 162 163 158 153 141 121 123 127 122 132 140 131 130 148 155 150 150 150 149 146 139 134 134 125 118
166 140 150 130 95 109 66 50 66 55 105 135 145 157 140 137 134 133 125 110 130 152 159 164 165 162 163 157 146 127 116 124 124 132 145 138 140 159 166 162 161 161 161 158 153 150 150 142 138
152 139 175 173 180 157 96 339 60 67 116 146 151 159 144 127 132 129 119 100 110 133 152 160 166 166 163 160 152 139 130 128 130 138 143 162 158 168 170 172 173 174 174 171 168 169 171 166 164
142 141 166 193 187 196 185 17 201 92 130 153 169 170 149 134 130 126 114 102 104 114 134 155 165 164 163 155 157 155 154 153 158 161 158 191 192 190 190 186 182 184 185 185 185 189 190 189 191
179 285 205 203 208 238 193 25 154 163 137 158 171 173 154 143 140 136 121 110 103 118 124 141 162 170 177 192 204 217 219 198 194 212 215 216 225 224 217 203 193 193 196 199 200 204 207 212 214
204 229 240 241 241 229 235 249 32 169 138 152 168 166 170 160 145 138 132 127 120 114 125 146 162 185 212 225 229 239 241 246 246 211 228 238 244 243 232 224 212 206 206 209 214 217 217 225 232
273 272 258 272 270 241 246 251 222 164 168 165 170 174 173 160 155 149 144 141 137 133 132 136 154 189 213 225 248 261 252 244 239 227 236 234 240 242 244 237 230 226 218 217 223 228 231 237 243
248 255 256 226 195 214 222 218 219 178 147 120 162 172 167 168 165 158 153 146 134 134 143 153 159 170 190 217 241 257 265 255 245 239 243 247 242 242 239 239 240 239 228 227 230 236 241 246 255
218 244 208 194 192 201 212 241 233 227 200 188 163 165 177 178 169 160 154 144 154 138 145 150 150 172 185 209 221 234 228 231 239 238 238 242 245 238 239 241 243 244 243 238 240 241 243 246 252
160 160 183 211 190 195 203 213 228 233 234 222 194 173 167 164 152 145 143 147 146 136 168 167 173 177 175 164 166 178 226 224 223 230 239 244 245 246 245 243 244 245 247 247 247 248 251 252 254
185 171 165 174 193 199 211 231 266 257 239 236 232 209 169 165 157 149 138 143 159 177 174 177 179 179 164 167 188 198 204 229 228 231 233 237 245 250 254 258 253 250 251 249 249 253 255 255 258
210 208 215 229 227 240 228 215 265 260 252 236 227 221 201 178 183 180 184 197 195 211 204 210 188 207 227 242 247 242 263 267 260 259 252 250 252 252 254 255 259 263 260 258 257 253 254 258 261
196 190 223 232 222 252 232 211 227 252 254 253 226 222 211 202 180 194 208 216 218 205 208 208 213 215 211 222 254 272 268 264 254 256 263 262 261 261 260 263 265 261 259 261 261 263 262 261 262
214 218 230 246 238 218 190 218 232 256 265 256 244 212 207 206 215 210 204 207 202 216 220 215 205 213 219 255 266 264 256 261 261 262 251 261 267 266 267 269 269 265 263 262 259 261 263 266 266
213 211 227 224 189 215 196 259 250 284 264 283 201 177 190 199 212 220 224 222 210 235 236 235 248 252 265 251 257 287 270 262 270 271 263 265 266 268 261 263 266 270 266 261 262 263 263 265 267
208 208 187 196 181 228 186 218 231 220 212 250 200 179 183 200 208 216 220 227 229 236 238 226 230 237 235 264 286 289 278 278 274 273 274 276 279 274 269 270 271 265 266 267 266 265 264 263 264
182 194 202 193 187 230 193 204 199 208 201 199 200 188 190 206 209 220 229 230 227 239 243 231 236 244 258 276 283 283 286 290 294 296 296 295 292 287 279 280 279 277 269 269 270 270 268 268 266
201 208 209 226 216 205 227 202 188 192 185 190 202 185 183 198 207 217 230 235 251 257 241 227 255 268 268 273 283 287 287 289 290 289 290 291 291 290 289 288 285 280 277 273 273 271 271 269 268
Height
3164 3166 3166 3166 3171 3170 3172 3176 3175 3177 3179 3180 3183 3184 3187 3188 3190 3196 3194 3197 3200 3202 3204 3206 3207 3208 3209 3210 3211 3211 3212 3213 3213 3213 3213 3214 3213 3213 3213 3213 3212 3212 3213 3213 3214 3214 3214 3214 3215
3167 3168 3169 3168 3171 3172 3175 3176 3178 3180 3180 3182 3184 3186 3188 3190 3190 3193 3197 3199 3201 3204 3206 3209 3210 3210 3212 3213 3214 3215 3215 3215 3215 3215 3215 3214 3215 3215 3215 3215 3215 3216 3216 3217 3217 3216 3216 3216 3217
3170 3171 3172 3172 3173 3175 3177 3178 3179 3181 3182 3184 3185 3186 3189 3191 3192 3196 3199 3201 3203 3207 3209 3211 3212 3213 3215 3216 3217 3217 3218 3217 3218 3217 3217 3217 3217 3217 3217 3217 3218 3218 3219 3219 3219 3219 3219 3219 3220
3173 3174 3174 3175 3176 3177 3178 3179 3180 3182 3183 3186 3187 3188 3190 3192 3195 3198 3200 3203 3206 3209 3212 3214 3215 3216 3217 3219 3219 3220 3220 3219 3220 3219 3219 3219 3219 3220 3220 3220 3221 3221 3221 3222 3222 3222 3222 3223 3224
3175 3175 3175 3177 3179 3179 3180 3181 3182 3183 3185 3186 3188 3187 3187 3192 3197 3200 3202 3206 3209 3212 3214 3216 3217 3219 3219 3221 3221 3222 3221 3222 3221 3222 3222 3222 3222 3222 3223 3223 3224 3224 3225 3225 3226 3226 3227 3227 3229
3177 3177 3178 3179 3181 3182 3183 3183 3184 3185 3186 3187 3188 3190 3190 3194 3199 3202 3204 3207 3211 3214 3216 3217 3218 3220 3221 3223 3224 3224 3224 3224 3224 3224 3225 3225 3225 3226 3226 3226 3227 3228 3229 3229 3230 3231 3232 3232 3233
3178 3178 3180 3181 3183 3184 3185 3185 3185 3186 3187 3189 3190 3192 3195 3196 3199 3204 3206 3209 3212 3214 3217 3218 3219 3221 3222 3225 3226 3226 3226 3226 3226 3227 3228 3229 3228 3229 3230 3230 3230 3232 3233 3233 3234 3236 3237 3238 3238
3180 3181 3181 3184 3185 3187 3187 3187 3186 3187 3189 3191 3193 3195 3195 3198 3201 3205 3207 3210 3212 3215 3217 3219 3221 3223 3225 3226 3227 3228 3228 3228 3229 3230 3231 3232 3232 3232 3233 3234 3235 3236 3237 3238 3239 3240 3242 3242 3242
3182 3184 3184 3185 3186 3188 3189 3189 3188 3189 3190 3192 3195 3197 3199 3200 3203 3206 3208 3210 3212 3215 3218 3220 3223 3224 3226 3229 3229 3230 3231 3231 3232 3234 3235 3235 3235 3236 3237 3238 3239 3240 3241 3243 3244 3245 3246 3246 3246
3184 3185 3186 3187 3188 3190 3190 3191 3191 3191 3192 3194 3196 3198 3200 3203 3205 3207 3208 3210 3212 3215 3218 3221 3224 3226 3229 3230 3231 3232 3232 3233 3235 3236 3238 3239 3239 3240 3241 3242 3244 3245 3246 3247 3248 3248 3250 3250 3251
3185 3187 3188 3189 3190 3191 3191 3191 3193 3193 3194 3196 3198 3200 3202 3204 3206 3207 3209 3210 3212 3215 3218 3221 3225 3227 3231 3232 3233 3234 3235 3235 3237 3239 3240 3241 3242 3243 3244 3245 3247 3248 3250 3250 3251 3252 3253 3254 3254
3186 3188 3190 3191 3192 3192 3193 3193 3194 3195 3196 3196 3199 3203 3204 3205 3207 3208 3210 3211 3212 3214 3218 3222 3226 3229 3232 3234 3235 3236 3237 3238 3239 3241 3243 3244 3245 3246 3247 3248 3250 3251 3252 3253 3254 3255 3256 3256 3257
3188 3188 3190 3192 3193 3194 3195 3196 3197 3197 3197 3197 3199 3203 3205 3207 3208 3209 3211 3213 3213 3215 3219 3223 3226 3230 3233 3236 3237 3238 3239 3240 3241 3243 3244 3246 3248 3248 3249 3250 3252 3254 3255 3255 3256 3257 3258 3258 3258
3188 3189 3191 3192 3194 3195 3196 3197 3198 3199 3199 3200 3203 3206 3208 3208 3209 3212 3213 3215 3214 3215 3220 3224 3227 3230 3234 3237 3239 3240 3241 3242 3243 3244 3246 3247 3249 3250 3251 3252 3254 3255 3256 3257 3258 3258 3259 3260 3259
3190 3191 3192 3193 3195 3196 3196 3198 3200 3201 3201 3202 3204 3207 3209 3210 3211 3213 3215 3217 3217 3218 3222 3226 3230 3233 3235 3238 3240 3242 3242 3243 3244 3245 3246 3248 3249 3251 3252 3254 3255 3256 3257 3258 3259 3259 3260 3260 3260
3192 3193 3193 3195 3196 3197 3199 3200 3201 3202 3203 3203 3206 3208 3210 3211 3213 3215 3216 3219 3221 3223 3225 3228 3231 3235 3238 3240 3241 3242 3243 3244 3245 3245 3246 3248 3249 3250 3251 3253 3254 3256 3257 3258 3259 3259 3260 3260 3260
3193 3194 3195 3196 3196 3198 3200 3200 3201 3202 3203 3204 3206 3209 3211 3212 3214 3216 3218 3220 3222 3224 3227 3230 3233 3236 3237 3239 3241 3243 3244 3245 3245 3246 3247 3248 3249 3250 3251 3252 3253 3254 3256 3257 3258 3259 3259 3259 3260
3193 3193 3194 3195 3197 3197 3199 3200 3201 3203 3204 3205 3207 3209 3211 3213 3215 3217 3219 3221 3224 3226 3228 3231 3233 3236 3238 3239 3240 3241 3243 3245 3246 3246 3247 3247 3248 3249 3250 3251 3252 3253 3255 3255 3256 3257 3257 3258 3258
3192 3194 3195 3195 3196 3197 3199 3201 3202 3203 3204 3205 3207 3209 3211 3214 3216 3218 3220 3222 3224 3226 3230 3232 3234 3235 3237 3238 3239 3240 3241 3242 3244 3246 3246 3247 3247 3247 3248 3249 3251 3252 3253 3254 3255 3255 3255 3256 3256
3191 3192 3193 3194 3195 3197 3198 3201 3201 3203 3206 3207 3208 3210 3213 3215 3216 3217 3219 3222 3225 3227 3229 3231 3233 3234 3235 3237 3237 3239 3240 3240 3241 3242 3243 3244 3245 3245 3246 3246 3247 3249 3250 3251 3252 3253 3254 3254 3253
3189 3190 3192 3193 3194 3196 3197 3199 3200 3202 3204 3206 3208 3211 3213 3215 3217 3218 3219 3222 3224 3226 3229 3230 3232 3233 3234 3235 3236 3237 3238 3238 3239 3238 3239 3241 3242 3242 3243 3244 3244 3245 3245 3247 3248 3249 3250 3250 3251
3189 3190 3191 3193 3194 3196 3196 3197 3198 3199 3201 3204 3207 3209 3211 3214 3216 3218 3219 3222 3224 3226 3228 3228 3230 3231 3232 3233 3233 3234 3235 3235 3235 3235 3235 3236 3237 3239 3240 3241 3241 3241 3241 3242 3243 3243 3244 3245 3245
3189 3190 3191 3192 3193 3194 3196 3199 3194 3196 3198 3200 3204 3207 3210 3213 3216 3218 3220 3222 3224 3226 3227 3227 3227 3229 3230 3230 3231 3231 3231 3232 3231 3231 3232 3232 3233 3234 3235 3236 3237 3238 3238 3238 3238 3239 3240 3239 3240
3188 3190 3191 3192 3193 3194 3193 3196 3194 3193 3194 3196 3198 3202 3208 3210 3212 3213 3215 3218 3221 3222 3224 3226 3227 3227 3228 3228 3229 3229 3229 3229 3229 3229 3230 3230 3230 3230 3231 3231 3232 3234 3234 3235 3235 3234 3234 3234 3234
3186 3189 3190 3190 3190 3189 3191 3193 3192 3191 3190 3190 3194 3196 3202 3208 3210 3210 3211 3214 3217 3219 3221 3222 3223 3224 3225 3225 3226 3227 3227 3226 3226 3226 3226 3226 3226 3227 3227 3227 3227 3227 3228 3229 3229 3230 3229 3229 3228
3184 3186 3188 3188 3186 3188 3189 3190 3188 3188 3188 3187 3187 3191 3198 3204 3207 3208 3209 3211 3212 3214 3215 3216 3216 3216 3209 3219 3221 3221 3221 3221 3222 3222 3223 3223 3223 3223 3223 3222 3221 3221 3221 3222 3222 3223 3223 3223 3223
3180 3183 3185 3185 3188 3189 3190 3188 3187 3186 3186 3186 3186 3188 3192 3199 3203 3205 3205 3207 3208 3210 3211 3212 3209 3212 3213 3215 3215 3216 3215 3215 3217 3217 3217 3217 3218 3218 3217 3216 3216 3216 3215 3215 3215 3215 3216 3216 3216
3179 3182 3184 3185 3186 3184 3186 3186 3185 3185 3185 3186 3187 3187 3190 3194 3199 3200 3201 3202 3205 3208 3208 3209 3211 3211 3211 3211 3212 3213 3213 3212 3212 3212 3211 3211 3211 3210 3210 3211 3211 3210 3209 3209 3209 3207 3208 3208 3208
3177 3178 3180 3181 3182 3180 3181 3183 3181 3182 3183 3183 3184 3186 3189 3192 3194 3196 3197 3199 3203 3203 3205 3206 3208 3209 3209 3209 3209 3209 3209 3209 3208 3207 3206 3206 3205 3205 3205 3204 3204 3203 3203 3203 3202 3201 3201 3200 3200
3174 3176 3177 3178 3179 3178 3179 3181 3179 3181 3182 3182 3183 3183 3186 3188 3190 3192 3195 3196 3200 3200 3200 3204 3203 3203 3203 3204 3204 3203 3203 3202 3201 3201 3200 3199 3199 3198 3197 3197 3196 3195 3195 3194 3193 3192 3193 3191 3192